Location: Arbon
(43.0005°N, 0.7472°E)
Time: 01:52:48
(UTC+00:00)

SL-08 ROCKET BODY - Pass Details

Date: 07 August 2020
Orbit: 896 x 964 km, 82.9° (Epoch: 27 September)

Event Time Altitude Azimuth Distance (km) Brightness Sun altitude
Rises 04:16:02 0° 350° (N) 3,632 7.8 -7.1°
Reaches altitude 10° 04:18:34 10° 348° (NNW) 2,674 7.1 -6.7°
Maximum altitude 04:24:38 71° 266° (W) 984 4.4 -5.8°
Drops below altitude 10° 04:30:33 10° 183° (S) 2,609 6.5 -4.8°
Sets 04:32:59 0° 181° (S) 3,537 7.1 -4.4°
